Location: Aragüita
(10.0436°N, 67.8028°W)
Time: 22:02:42
(UTC+00:00)

Meteor 1-23 Rocket - Visible Passes

Search period start: 12 July 2024 00:00
Search period end: 22 July 2024 00:00
Orbit: 843 x 880 km, 81.3° (Epoch: 11 July)

Date Brightness Start Highest point End Pass type
(mag) Time Alt. Az. Time Alt. Az. Time Alt. Az.
12 Jul 4.2 09:43:59 10° N 09:49:39 86° W 09:55:16 10° S visible
13 Jul 4.2 09:35:22 10° N 09:41:01 88° W 09:46:38 10° S visible
14 Jul 4.2 09:26:44 10° N 09:32:23 89° W 09:37:59 10° S visible
15 Jul 4.2 09:18:06 10° N 09:23:45 89° E 09:29:21 10° S visible
16 Jul 4.2 09:09:28 10° N 09:15:07 87° E 09:20:43 10° S visible
17 Jul 4.2 09:00:50 10° N 09:06:29 85° E 09:12:05 10° S visible
18 Jul 4.2 08:52:13 10° N 08:57:51 83° E 09:03:26 10° S visible
19 Jul 4.2 08:43:35 10° N 08:49:13 82° E 08:54:48 10° S visible
20 Jul 4.2 08:34:57 10° N 08:40:34 80° E 08:46:10 10° S visible
21 Jul 4.2 08:26:19 10° N 08:31:56 78° E 08:36:50 14° S visible
